This is the latest recevied weather packets stored in our database for station/object KG7MRB. If no packets are shown the sender has not sent any weather packets the latest 10 day(s).
| Time | Temp. | Humidity | Pressure | Rain* | Wind** | Luminosity | Snow |
|---|---|---|---|---|---|---|---|
| 1777916452 | 25° C | 39% | 1028 hPa | 0 mm | - | 517 W/m² | - |
| 1777916149 | 25° C | 41% | 1028.1 hPa | 0 mm | - | 459 W/m² | - |
| 1777915846 | 24.44° C | 43% | 1028.2 hPa | 0 mm | - | 463 W/m² | - |
| 1777915542 | 23.89° C | 45% | 1028.1 hPa | 0 mm | - | 488 W/m² | - |
| 1777915239 | 23.33° C | 45% | 1028.3 hPa | 0 mm | - | 468 W/m² | - |
| 1777914936 | 23.89° C | 49% | 1028.3 hPa | 0 mm | - | 452 W/m² | - |
| 1777914633 | 23.89° C | 49% | 1028.6 hPa | 0 mm | - | 462 W/m² | - |
| 1777914328 | 23.33° C | 50% | 1028.7 hPa | 0 mm | - | 444 W/m² | - |
| 1777914026 | 22.78° C | 52% | 1028.6 hPa | 0 mm | - | 456 W/m² | - |
| 1777913722 | 22.78° C | 50% | 1028.8 hPa | 0 mm | - | 463 W/m² | - |
| 1777913419 | 21.67° C | 52% | 1028.8 hPa | 0 mm | - | 408 W/m² | - |
| 1777913115 | 21.11° C | 57% | 1028.8 hPa | 0 mm | - | 434 W/m² | - |
| 1777912812 | 20.56° C | 63% | 1028.6 hPa | 0 mm | - | 412 W/m² | - |
| 1777912508 | 20° C | 66% | 1028.8 hPa | 0 mm | - | 395 W/m² | - |
| 1777912205 | 19.44° C | 61% | 1028.7 hPa | 0 mm | - | 393 W/m² | - |
| 1777911901 | 19.44° C | 61% | 1028.6 hPa | 0 mm | - | 339 W/m² | - |
| 1777911597 | 17.78° C | 66% | 1028.8 hPa | 0 mm | - | 338 W/m² | - |
| 1777911293 | 17.78° C | 68% | 1028.8 hPa | 0 mm | - | 328 W/m² | - |
| 1777910991 | 17.22° C | 72% | 1028.8 hPa | 0 mm | - | 326 W/m² | - |
| 1777910689 | 16.67° C | 72% | 1028.7 hPa | 0 mm | - | 324 W/m² | - |
| 1777910384 | 15.56° C | 77% | 1029 hPa | 0 mm | - | 326 W/m² | - |
| 1777910081 | 14.44° C | 81% | 1029 hPa | 0 mm | - | 314 W/m² | - |
| 1777909779 | 13.89° C | 82% | 1029.1 hPa | 0 mm | - | 285 W/m² | - |
| 1777909475 | 13.33° C | 82% | 1029.1 hPa | 0 mm | - | 254 W/m² | - |
| 1777909173 | 12.78° C | 88% | 1029 hPa | 0 mm | - | 225 W/m² | - |
* Rain latest hour (hover to see other rain measurements)
** Current wind speed in m/s (hover to see current wind gust speed)